Time,TemperatureF,DewpointF,PressureIn,WindDirection,WindDirectionDegrees,WindSpeedMPH,WindSpeedGustMPH,Humidity,HourlyPrecipIn,Conditions,Clouds,dailyrainin,SoftwareType,DateUTC
2013-05-30 00:04:00,72.8,65.9,29.86,SSW,195,12.0,15.0,79,0.00,,,0.00,Wunderground v.1.15,2013-05-30 05:04:00,
2013-05-30 00:09:00,72.9,66.0,29.87,SSW,197,12.0,16.0,79,0.00,,,0.00,Wunderground v.1.15,2013-05-30 05:09:00,
2013-05-30 00:14:00,72.9,66.0,29.86,South,175,12.0,13.0,79,0.00,,,0.00,Wunderground v.1.15,2013-05-30 05:14:00,
2013-05-30 00:19:00,72.9,66.0,29.87,South,175,12.0,16.0,79,0.00,,,0.00,Wunderground v.1.15,2013-05-30 05:19:00,
2013-05-30 00:24:00,72.6,66.1,29.87,South,178,12.0,16.0,80,0.00,,,0.00,Wunderground v.1.15,2013-05-30 05:24:00,
2013-05-30 00:29:00,72.3,66.1,29.87,SE,145,12.0,16.0,81,0.00,,,0.00,Wunderground v.1.15,2013-05-30 05:29:00,
2013-05-30 00:34:00,72.1,65.9,29.87,SSE,149,11.0,12.0,81,0.00,,,0.00,Wunderground v.1.15,2013-05-30 05:34:00,
2013-05-30 00:39:00,71.9,66.1,29.86,SSE,151,11.0,15.0,82,0.00,,,0.00,Wunderground v.1.15,2013-05-30 05:39:00,
2013-05-30 00:44:00,71.6,65.8,29.87,SSE,164,11.0,12.0,82,0.00,,,0.00,Wunderground v.1.15,2013-05-30 05:44:00,
2013-05-30 00:49:00,71.4,66.0,29.87,SW,216,11.0,12.0,83,0.00,,,0.00,Wunderground v.1.15,2013-05-30 05:49:00,
2013-05-30 00:54:00,71.2,65.8,29.86,South,178,10.0,12.0,83,0.00,,,0.00,Wunderground v.1.15,2013-05-30 05:54:00,
2013-05-30 00:59:00,71.2,65.8,29.86,SE,144,11.0,13.0,83,0.00,,,0.00,Wunderground v.1.15,2013-05-30 05:59:00,
2013-05-30 01:05:00,71.1,66.0,29.86,SSE,161,11.0,12.0,84,0.00,,,0.00,Wunderground v.1.15,2013-05-30 06:05:00,
2013-05-30 01:10:00,71.2,66.1,29.86,South,169,10.0,10.0,84,0.00,,,0.00,Wunderground v.1.15,2013-05-30 06:10:00,
2013-05-30 01:15:00,71.2,66.1,29.86,SSE,160,11.0,12.0,84,0.00,,,0.00,Wunderground v.1.15,2013-05-30 06:15:00,
2013-05-30 01:20:00,71.1,66.0,29.86,SSE,166,11.0,14.0,84,0.00,,,0.00,Wunderground v.1.15,2013-05-30 06:20:00,
2013-05-30 01:25:00,71.0,65.9,29.85,SE,145,11.0,14.0,84,0.00,,,0.00,Wunderground v.1.15,2013-05-30 06:25:00,
2013-05-30 01:30:00,70.9,65.8,29.85,SSE,156,11.0,12.0,84,0.00,,,0.00,Wunderground v.1.15,2013-05-30 06:30:00,
2013-05-30 01:36:00,70.9,65.8,29.85,SSE,167,12.0,16.0,84,0.00,,,0.00,Wunderground v.1.15,2013-05-30 06:36:00,
2013-05-30 01:41:00,70.9,65.8,29.85,SSE,147,12.0,12.0,84,0.00,,,0.00,Wunderground v.1.15,2013-05-30 06:41:00,
2013-05-30 01:46:00,70.8,65.7,29.85,SSE,164,12.0,13.0,84,0.00,,,0.00,Wunderground v.1.15,2013-05-30 06:46:00,
2013-05-30 01:51:00,70.7,65.6,29.84,SSE,158,11.0,11.0,84,0.00,,,0.00,Wunderground v.1.15,2013-05-30 06:51:00,
2013-05-30 01:56:00,70.7,65.6,29.84,SSE,159,11.0,14.0,84,0.00,,,0.00,Wunderground v.1.15,2013-05-30 06:56:00,
2013-05-30 02:01:00,70.8,65.7,29.84,SSE,160,11.0,11.0,84,0.00,,,0.00,Wunderground v.1.15,2013-05-30 07:01:00,
2013-05-30 02:06:00,70.8,65.7,29.84,SSE,147,11.0,14.0,84,0.00,,,0.00,Wunderground v.1.15,2013-05-30 07:06:00,
2013-05-30 02:11:00,70.8,65.7,29.84,SSE,164,11.0,14.0,84,0.00,,,0.00,Wunderground v.1.15,2013-05-30 07:11:00,
2013-05-30 02:16:00,70.8,65.7,29.84,South,175,12.0,15.0,84,0.00,,,0.00,Wunderground v.1.15,2013-05-30 07:16:00,
2013-05-30 02:22:00,70.7,65.6,29.84,SSE,164,12.0,13.0,84,0.00,,,0.00,Wunderground v.1.15,2013-05-30 07:22:00,
2013-05-30 02:27:00,70.5,65.8,29.84,SSE,154,11.0,14.0,85,0.00,,,0.00,Wunderground v.1.15,2013-05-30 07:27:00,
2013-05-30 02:32:00,70.5,65.8,29.83,South,175,11.0,13.0,85,0.00,,,0.00,Wunderground v.1.15,2013-05-30 07:32:00,
2013-05-30 02:37:00,70.6,65.9,29.83,SSE,167,11.0,14.0,85,0.00,,,0.00,Wunderground v.1.15,2013-05-30 07:37:00,
2013-05-30 02:42:00,70.9,65.8,29.83,SSE,161,11.0,13.0,84,0.00,,,0.00,Wunderground v.1.15,2013-05-30 07:42:00,
2013-05-30 02:47:00,71.1,66.0,29.83,South,179,13.0,18.0,84,0.00,,,0.00,Wunderground v.1.15,2013-05-30 07:47:00,
2013-05-30 02:52:00,71.2,66.1,29.83,SE,142,13.0,18.0,84,0.00,,,0.00,Wunderground v.1.15,2013-05-30 07:52:00,
2013-05-30 02:57:00,71.2,66.1,29.83,South,171,13.0,18.0,84,0.00,,,0.00,Wunderground v.1.15,2013-05-30 07:57:00,
2013-05-30 03:03:00,71.3,65.9,29.83,SSE,156,13.0,14.0,83,0.00,,,0.00,Wunderground v.1.15,2013-05-30 08:03:00,
2013-05-30 03:08:00,71.4,66.0,29.83,SSE,163,13.0,19.0,83,0.00,,,0.00,Wunderground v.1.15,2013-05-30 08:08:00,
2013-05-30 03:13:00,71.4,66.0,29.83,SSW,201,12.0,16.0,83,0.00,,,0.00,Wunderground v.1.15,2013-05-30 08:13:00,
2013-05-30 03:18:00,71.4,66.0,29.83,SSW,199,12.0,16.0,83,0.00,,,0.00,Wunderground v.1.15,2013-05-30 08:18:00,
2013-05-30 03:23:00,71.4,66.0,29.83,SSE,164,12.0,17.0,83,0.00,,,0.00,Wunderground v.1.15,2013-05-30 08:23:00,
2013-05-30 03:28:00,71.4,66.0,29.83,SSW,194,12.0,17.0,83,0.00,,,0.00,Wunderground v.1.15,2013-05-30 08:28:00,
2013-05-30 03:33:00,71.3,65.9,29.83,South,182,12.0,15.0,83,0.00,,,0.00,Wunderground v.1.15,2013-05-30 08:33:00,
2013-05-30 03:38:00,71.2,66.1,29.83,South,173,12.0,15.0,84,0.00,,,0.00,Wunderground v.1.15,2013-05-30 08:38:00,
2013-05-30 03:43:00,71.1,66.0,29.83,South,175,12.0,13.0,84,0.00,,,0.00,Wunderground v.1.15,2013-05-30 08:43:00,
2013-05-30 03:48:00,71.0,65.9,29.83,South,180,12.0,15.0,84,0.00,,,0.00,Wunderground v.1.15,2013-05-30 08:48:00,
2013-05-30 03:53:00,70.9,65.8,29.83,SSE,156,12.0,14.0,84,0.00,,,0.00,Wunderground v.1.15,2013-05-30 08:53:00,
2013-05-30 03:58:00,70.8,65.7,29.83,SE,142,11.0,14.0,84,0.00,,,0.00,Wunderground v.1.15,2013-05-30 08:58:00,
2013-05-30 04:04:00,70.8,66.1,29.83,South,187,11.0,15.0,85,0.00,,,0.00,Wunderground v.1.15,2013-05-30 09:04:00,
2013-05-30 04:09:00,70.7,66.0,29.83,SSE,160,12.0,15.0,85,0.00,,,0.00,Wunderground v.1.15,2013-05-30 09:09:00,
2013-05-30 04:14:00,70.7,66.0,29.83,South,182,12.0,14.0,85,0.00,,,0.00,Wunderground v.1.15,2013-05-30 09:14:00,
2013-05-30 04:19:00,70.5,65.8,29.84,SSW,192,11.0,16.0,85,0.00,,,0.00,Wunderground v.1.15,2013-05-30 09:19:00,
2013-05-30 04:24:00,70.5,65.8,29.83,SSE,163,11.0,12.0,85,0.00,,,0.00,Wunderground v.1.15,2013-05-30 09:24:00,
2013-05-30 04:29:00,70.4,66.0,29.83,SSE,157,11.0,14.0,86,0.00,,,0.00,Wunderground v.1.15,2013-05-30 09:29:00,
2013-05-30 04:34:00,70.4,66.0,29.83,South,172,11.0,13.0,86,0.00,,,0.00,Wunderground v.1.15,2013-05-30 09:34:00,
2013-05-30 04:39:00,70.3,65.9,29.84,SSE,165,10.0,13.0,86,0.00,,,0.00,Wunderground v.1.15,2013-05-30 09:39:00,
2013-05-30 04:44:00,70.3,65.9,29.84,South,185,11.0,13.0,86,0.00,,,0.00,Wunderground v.1.15,2013-05-30 09:44:00,
2013-05-30 04:49:00,70.1,65.7,29.84,SE,142,11.0,13.0,86,0.00,,,0.00,Wunderground v.1.15,2013-05-30 09:49:00,
2013-05-30 04:54:00,69.9,65.5,29.84,SSE,159,10.0,13.0,86,0.00,,,0.00,Wunderground v.1.15,2013-05-30 09:54:00,
2013-05-30 04:59:00,69.8,65.4,29.84,South,184,10.0,13.0,86,0.00,,,0.00,Wunderground v.1.15,2013-05-30 09:59:00,
2013-05-30 05:05:00,69.7,65.3,29.84,SSE,166,11.0,11.0,86,0.00,,,0.00,Wunderground v.1.15,2013-05-30 10:05:00,
2013-05-30 05:10:00,69.7,65.7,29.84,South,180,10.0,14.0,87,0.00,,,0.00,Wunderground v.1.15,2013-05-30 10:10:00,
2013-05-30 05:15:00,69.6,65.6,29.84,SE,142,10.0,14.0,87,0.00,,,0.00,Wunderground v.1.15,2013-05-30 10:15:00,
2013-05-30 05:20:00,69.6,65.6,29.84,SSE,156,11.0,12.0,87,0.00,,,0.00,Wunderground v.1.15,2013-05-30 10:20:00,
2013-05-30 05:25:00,69.6,65.6,29.84,SE,138,11.0,14.0,87,0.00,,,0.00,Wunderground v.1.15,2013-05-30 10:25:00,
2013-05-30 05:30:00,69.7,65.7,29.84,SSE,158,11.0,14.0,87,0.00,,,0.00,Wunderground v.1.15,2013-05-30 10:30:00,
2013-05-30 05:35:00,69.7,65.7,29.84,SE,138,12.0,15.0,87,0.00,,,0.00,Wunderground v.1.15,2013-05-30 10:35:00,
2013-05-30 05:40:00,69.6,65.6,29.84,South,171,12.0,12.0,87,0.00,,,0.00,Wunderground v.1.15,2013-05-30 10:40:00,
2013-05-30 05:45:00,69.6,65.6,29.84,SE,128,11.0,12.0,87,0.00,,,0.00,Wunderground v.1.15,2013-05-30 10:45:00,
2013-05-30 05:50:00,69.5,65.5,29.84,SE,140,11.0,11.0,87,0.00,,,0.00,Wunderground v.1.15,2013-05-30 10:50:00,
2013-05-30 05:55:00,69.5,65.5,29.84,SSE,163,11.0,12.0,87,0.00,,,0.00,Wunderground v.1.15,2013-05-30 10:55:00,
2013-05-30 06:00:00,69.6,65.6,29.84,SSE,152,11.0,11.0,87,0.00,,,0.00,Wunderground v.1.15,2013-05-30 11:00:00,
2013-05-30 06:06:00,69.6,65.6,29.84,SSE,154,11.0,12.0,87,0.00,,,0.00,Wunderground v.1.15,2013-05-30 11:06:00,
2013-05-30 06:11:00,69.9,65.9,29.84,SE,138,11.0,15.0,87,0.00,,,0.00,Wunderground v.1.15,2013-05-30 11:11:00,
2013-05-30 06:16:00,70.1,66.0,29.84,SE,139,12.0,15.0,87,0.00,,,0.00,Wunderground v.1.15,2013-05-30 11:16:00,
2013-05-30 06:21:00,70.3,66.2,29.83,SSE,159,12.0,13.0,87,0.00,,,0.00,Wunderground v.1.15,2013-05-30 11:21:00,
2013-05-30 06:26:00,70.5,66.4,29.83,SE,138,13.0,15.0,87,0.00,,,0.00,Wunderground v.1.15,2013-05-30 11:26:00,
2013-05-30 06:31:00,70.7,66.6,29.84,SSE,149,13.0,13.0,87,0.00,,,0.00,Wunderground v.1.15,2013-05-30 11:31:00,
2013-05-30 06:36:00,70.9,66.5,29.84,SE,142,13.0,15.0,86,0.00,,,0.00,Wunderground v.1.15,2013-05-30 11:36:00,
2013-05-30 06:41:00,71.3,66.9,29.84,SSE,154,13.0,15.0,86,0.00,,,0.00,Wunderground v.1.15,2013-05-30 11:41:00,
2013-05-30 06:46:00,71.7,67.3,29.84,SSE,149,14.0,15.0,86,0.00,,,0.00,Wunderground v.1.15,2013-05-30 11:46:00,
2013-05-30 06:51:00,72.1,67.7,29.84,SSE,163,14.0,17.0,86,0.00,,,0.00,Wunderground v.1.15,2013-05-30 11:51:00,
2013-05-30 06:56:00,72.6,67.8,29.84,SSE,166,15.0,18.0,85,0.00,,,0.00,Wunderground v.1.15,2013-05-30 11:56:00,
2013-05-30 07:02:00,73.1,68.3,29.84,SSE,165,15.0,15.0,85,0.00,,,0.00,Wunderground v.1.15,2013-05-30 12:02:00,
2013-05-30 07:07:00,73.4,68.3,29.84,South,172,15.0,21.0,84,0.00,,,0.00,Wunderground v.1.15,2013-05-30 12:07:00,
2013-05-30 07:12:00,73.8,68.7,29.84,SSW,198,17.0,18.0,84,0.00,,,0.00,Wunderground v.1.15,2013-05-30 12:12:00,
2013-05-30 07:17:00,74.2,68.7,29.84,SSE,156,18.0,23.0,83,0.00,,,0.00,Wunderground v.1.15,2013-05-30 12:17:00,
2013-05-30 07:22:00,74.5,68.6,29.83,South,190,18.0,25.0,82,0.00,,,0.00,Wunderground v.1.15,2013-05-30 12:22:00,
2013-05-30 07:27:00,74.5,68.6,29.83,SSW,208,19.0,25.0,82,0.00,,,0.00,Wunderground v.1.15,2013-05-30 12:27:00,
2013-05-30 07:32:00,74.4,68.5,29.83,SW,225,18.0,25.0,82,0.00,,,0.00,Wunderground v.1.15,2013-05-30 12:32:00,
2013-05-30 07:37:00,74.8,68.9,29.84,SSW,198,18.0,25.0,82,0.00,,,0.00,Wunderground v.1.15,2013-05-30 12:37:00,
2013-05-30 07:42:00,75.1,68.9,29.84,South,169,19.0,22.0,81,0.00,,,0.00,Wunderground v.1.15,2013-05-30 12:42:00,
2013-05-30 07:47:00,75.3,69.1,29.84,SSW,209,19.0,22.0,81,0.00,,,0.00,Wunderground v.1.15,2013-05-30 12:47:00,
2013-05-30 07:52:00,75.5,69.3,29.84,SSW,205,20.0,20.0,81,0.00,,,0.00,Wunderground v.1.15,2013-05-30 12:52:00,
2013-05-30 07:57:00,75.5,69.3,29.84,SSE,163,19.0,20.0,81,0.00,,,0.00,Wunderground v.1.15,2013-05-30 12:57:00,
2013-05-30 08:03:00,75.7,69.5,29.84,SSW,202,19.0,21.0,81,0.00,,,0.00,Wunderground v.1.15,2013-05-30 13:03:00,
2013-05-30 08:08:00,76.1,69.8,29.84,SSE,163,19.0,29.0,81,0.00,,,0.00,Wunderground v.1.15,2013-05-30 13:08:00,
2013-05-30 08:13:00,76.1,69.5,29.84,SSW,194,18.0,24.0,80,0.00,,,0.00,Wunderground v.1.15,2013-05-30 13:13:00,
2013-05-30 08:18:00,76.1,69.8,29.84,South,175,19.0,24.0,81,0.00,,,0.00,Wunderground v.1.15,2013-05-30 13:18:00,
2013-05-30 08:23:00,76.0,69.7,29.84,SW,216,19.0,24.0,81,0.00,,,0.00,Wunderground v.1.15,2013-05-30 13:23:00,
2013-05-30 08:28:00,75.8,69.6,29.84,SSW,199,19.0,24.0,81,0.00,,,0.00,Wunderground v.1.15,2013-05-30 13:28:00,
2013-05-30 08:33:00,75.7,69.5,29.84,South,191,19.0,24.0,81,0.00,,,0.00,Wunderground v.1.15,2013-05-30 13:33:00,
2013-05-30 08:38:00,75.5,69.3,29.84,South,187,19.0,24.0,81,0.00,,,0.00,Wunderground v.1.15,2013-05-30 13:38:00,
2013-05-30 08:43:00,75.4,69.5,29.84,South,169,18.0,23.0,82,0.00,,,0.00,Wunderground v.1.15,2013-05-30 13:43:00,
2013-05-30 08:48:00,75.3,69.4,29.84,South,185,17.0,23.0,82,0.00,,,0.00,Wunderground v.1.15,2013-05-30 13:48:00,
2013-05-30 08:53:00,75.3,69.1,29.84,SSE,155,18.0,22.0,81,0.00,,,0.00,Wunderground v.1.15,2013-05-30 13:53:00,
2013-05-30 08:58:00,75.3,69.4,29.84,South,173,18.0,25.0,82,0.00,,,0.00,Wunderground v.1.15,2013-05-30 13:58:00,
2013-05-30 09:04:00,75.4,69.5,29.84,SSW,204,18.0,19.0,82,0.00,,,0.00,Wunderground v.1.15,2013-05-30 14:04:00,
2013-05-30 09:09:00,75.5,69.6,29.84,South,186,17.0,24.0,82,0.00,,,0.00,Wunderground v.1.15,2013-05-30 14:09:00,
2013-05-30 09:14:00,75.7,69.8,29.84,South,175,17.0,20.0,82,0.00,,,0.00,Wunderground v.1.15,2013-05-30 14:14:00,
2013-05-30 09:19:00,75.9,69.6,29.84,SSW,195,17.0,26.0,81,0.00,,,0.00,Wunderground v.1.15,2013-05-30 14:19:00,
2013-05-30 09:24:00,76.1,69.8,29.84,SSW,212,18.0,20.0,81,0.00,,,0.00,Wunderground v.1.15,2013-05-30 14:24:00,
2013-05-30 09:29:00,76.1,69.8,29.83,SW,227,18.0,24.0,81,0.00,,,0.00,Wunderground v.1.15,2013-05-30 14:29:00,
2013-05-30 09:35:00,76.1,69.8,29.83,SSW,201,18.0,22.0,81,0.00,,,0.00,Wunderground v.1.15,2013-05-30 14:35:00,
2013-05-30 09:40:00,76.2,69.9,29.83,South,179,19.0,23.0,81,0.00,,,0.00,Wunderground v.1.15,2013-05-30 14:40:00,
2013-05-30 09:45:00,76.2,69.9,29.83,SSE,163,20.0,23.0,81,0.00,,,0.00,Wunderground v.1.15,2013-05-30 14:45:00,
2013-05-30 09:50:00,76.3,70.0,29.83,South,171,20.0,27.0,81,0.00,,,0.00,Wunderground v.1.15,2013-05-30 14:50:00,
2013-05-30 09:55:00,76.3,69.7,29.83,South,175,20.0,27.0,80,0.00,,,0.00,Wunderground v.1.15,2013-05-30 14:55:00,
2013-05-30 10:00:00,76.4,69.8,29.82,SSE,151,20.0,20.0,80,0.00,,,0.00,Wunderground v.1.15,2013-05-30 15:00:00,
2013-05-30 10:06:00,76.4,70.1,29.83,SSE,154,19.0,25.0,81,0.00,,,0.00,Wunderground v.1.15,2013-05-30 15:06:00,
2013-05-30 10:11:00,76.8,70.5,29.82,South,175,19.0,29.0,81,0.00,,,0.00,Wunderground v.1.15,2013-05-30 15:11:00,
2013-05-30 10:16:00,77.4,71.1,29.83,SSW,194,19.0,29.0,81,0.00,,,0.00,Wunderground v.1.15,2013-05-30 15:16:00,
2013-05-30 10:21:00,77.9,70.9,29.82,SSW,204,20.0,22.0,79,0.00,,,0.00,Wunderground v.1.15,2013-05-30 15:21:00,
2013-05-30 10:26:00,78.3,71.6,29.83,South,183,21.0,25.0,80,0.00,,,0.00,Wunderground v.1.15,2013-05-30 15:26:00,
2013-05-30 10:31:00,78.6,71.2,29.82,South,190,20.0,20.0,78,0.00,,,0.00,Wunderground v.1.15,2013-05-30 15:31:00,
2013-05-30 10:36:00,78.8,71.4,29.83,South,173,20.0,26.0,78,0.00,,,0.00,Wunderground v.1.15,2013-05-30 15:36:00,
2013-05-30 10:41:00,78.5,71.1,29.83,SSE,163,21.0,21.0,78,0.00,,,0.00,Wunderground v.1.15,2013-05-30 15:41:00,
2013-05-30 10:46:00,78.1,71.1,29.83,SSE,154,19.0,21.0,79,0.00,,,0.00,Wunderground v.1.15,2013-05-30 15:46:00,
2013-05-30 10:51:00,78.0,71.0,29.83,SSE,166,17.0,19.0,79,0.00,,,0.00,Wunderground v.1.15,2013-05-30 15:51:00,
2013-05-30 10:56:00,78.2,71.2,29.83,SSW,192,18.0,25.0,79,0.00,,,0.00,Wunderground v.1.15,2013-05-30 15:56:00,
2013-05-30 11:02:00,78.9,71.5,29.83,South,184,20.0,27.0,78,0.00,,,0.00,Wunderground v.1.15,2013-05-30 16:02:00,
2013-05-30 11:07:00,79.4,71.6,29.83,SSW,199,22.0,32.0,77,0.00,,,0.00,Wunderground v.1.15,2013-05-30 16:07:00,
2013-05-30 11:12:00,79.2,71.0,29.83,SSW,211,26.0,37.0,76,0.00,,,0.00,Wunderground v.1.15,2013-05-30 16:12:00,
2013-05-30 11:17:00,79.3,71.1,29.83,SSW,208,28.0,37.0,76,0.00,,,0.00,Wunderground v.1.15,2013-05-30 16:17:00,
2013-05-30 11:22:00,79.2,70.6,29.83,South,179,24.0,26.0,75,0.00,,,0.00,Wunderground v.1.15,2013-05-30 16:22:00,
2013-05-30 11:27:00,79.2,71.4,29.83,South,183,22.0,28.0,77,0.00,,,0.00,Wunderground v.1.15,2013-05-30 16:27:00,
2013-05-30 11:32:00,79.6,71.4,29.83,South,187,22.0,22.0,76,0.00,,,0.00,Wunderground v.1.15,2013-05-30 16:32:00,
2013-05-30 11:37:00,79.9,72.4,29.83,South,169,22.0,26.0,78,0.00,,,0.00,Wunderground v.1.15,2013-05-30 16:37:00,
2013-05-30 11:42:00,79.6,71.4,29.83,South,186,21.0,21.0,76,0.00,,,0.00,Wunderground v.1.15,2013-05-30 16:42:00,
2013-05-30 11:47:00,79.3,71.1,29.83,South,187,20.0,21.0,76,0.00,,,0.00,Wunderground v.1.15,2013-05-30 16:47:00,
2013-05-30 11:52:00,79.0,70.8,29.83,SSW,199,19.0,23.0,76,0.00,,,0.00,Wunderground v.1.15,2013-05-30 16:52:00,
2013-05-30 11:57:00,79.0,71.6,29.83,SSE,155,18.0,25.0,78,0.00,,,0.00,Wunderground v.1.15,2013-05-30 16:57:00,
2013-05-30 12:03:00,79.6,71.8,29.83,South,183,18.0,21.0,77,0.00,,,0.00,Wunderground v.1.15,2013-05-30 17:03:00,
2013-05-30 12:08:00,79.8,71.2,29.83,SE,143,19.0,24.0,75,0.00,,,0.00,Wunderground v.1.15,2013-05-30 17:08:00,
2013-05-30 12:14:00,79.7,71.5,29.83,South,190,19.0,23.0,76,0.00,,,0.00,Wunderground v.1.15,2013-05-30 17:14:00,
2013-05-30 12:19:00,79.8,70.8,29.83,SW,228,21.0,24.0,74,0.00,,,0.00,Wunderground v.1.15,2013-05-30 17:19:00,
2013-05-30 12:24:00,79.9,71.3,29.83,SSE,153,22.0,26.0,75,0.00,,,0.00,Wunderground v.1.15,2013-05-30 17:24:00,
2013-05-30 12:29:00,79.9,71.7,29.82,SSW,212,21.0,27.0,76,0.00,,,0.00,Wunderground v.1.15,2013-05-30 17:29:00,
2013-05-30 12:34:00,79.9,71.3,29.82,South,181,20.0,21.0,75,0.00,,,0.00,Wunderground v.1.15,2013-05-30 17:34:00,
2013-05-30 12:39:00,79.9,70.5,29.82,SSW,205,22.0,24.0,73,0.00,,,0.00,Wunderground v.1.15,2013-05-30 17:39:00,
2013-05-30 12:44:00,80.1,71.5,29.83,SSW,192,22.0,24.0,75,0.00,,,0.00,Wunderground v.1.15,2013-05-30 17:44:00,
2013-05-30 12:49:00,80.3,71.3,29.82,South,179,19.0,24.0,74,0.00,,,0.00,Wunderground v.1.15,2013-05-30 17:49:00,
2013-05-30 12:54:00,80.4,70.9,29.82,SSW,204,18.0,29.0,73,0.00,,,0.00,Wunderground v.1.15,2013-05-30 17:54:00,
2013-05-30 12:59:00,80.6,71.1,29.82,South,183,20.0,29.0,73,0.00,,,0.00,Wunderground v.1.15,2013-05-30 17:59:00,
2013-05-30 13:05:00,80.8,70.9,29.82,SW,218,19.0,23.0,72,0.00,,,0.00,Wunderground v.1.15,2013-05-30 18:05:00,
2013-05-30 13:10:00,81.5,72.4,29.82,SSW,199,20.0,31.0,74,0.00,,,0.00,Wunderground v.1.15,2013-05-30 18:10:00,
2013-05-30 13:15:00,82.0,71.2,29.81,SW,219,23.0,31.0,70,0.00,,,0.00,Wunderground v.1.15,2013-05-30 18:15:00,
2013-05-30 13:20:00,81.8,71.5,29.82,SSW,203,25.0,26.0,71,0.00,,,0.00,Wunderground v.1.15,2013-05-30 18:20:00,
2013-05-30 13:25:00,81.7,70.5,29.81,SSE,159,23.0,26.0,69,0.00,,,0.00,Wunderground v.1.15,2013-05-30 18:25:00,
2013-05-30 13:30:00,81.4,71.5,29.82,SSW,209,22.0,22.0,72,0.00,,,0.00,Wunderground v.1.15,2013-05-30 18:30:00,
2013-05-30 13:35:00,81.2,70.9,29.81,SSE,149,21.0,27.0,71,0.00,,,0.00,Wunderground v.1.15,2013-05-30 18:35:00,
2013-05-30 13:40:00,81.3,71.0,29.81,SSE,161,21.0,21.0,71,0.00,,,0.00,Wunderground v.1.15,2013-05-30 18:40:00,
2013-05-30 13:45:00,81.3,71.0,29.81,SSW,201,20.0,23.0,71,0.00,,,0.00,Wunderground v.1.15,2013-05-30 18:45:00,
2013-05-30 13:50:00,80.8,71.7,29.81,SSE,163,18.0,18.0,74,0.00,,,0.00,Wunderground v.1.15,2013-05-30 18:50:00,
2013-05-30 13:55:00,79.6,71.4,29.82,South,179,19.0,23.0,76,0.00,,,0.01,Wunderground v.1.15,2013-05-30 18:55:00,
2013-05-30 14:00:00,76.7,70.8,29.82,SE,145,19.0,23.0,82,0.21,,,0.05,Wunderground v.1.15,2013-05-30 19:00:00,
2013-05-30 14:06:00,76.1,70.9,29.81,SSW,209,17.0,23.0,84,0.16,,,0.11,Wunderground v.1.15,2013-05-30 19:06:00,
2013-05-30 14:11:00,77.0,71.1,29.80,South,169,16.0,23.0,82,0.07,,,0.11,Wunderground v.1.15,2013-05-30 19:11:00,
2013-05-30 14:16:00,77.8,71.5,29.80,South,190,15.0,23.0,81,0.04,,,0.11,Wunderground v.1.15,2013-05-30 19:16:00,
2013-05-30 14:21:00,79.1,73.1,29.80,SSW,198,16.0,16.0,82,0.00,,,0.11,Wunderground v.1.15,2013-05-30 19:21:00,
2013-05-30 14:26:00,79.8,73.1,29.80,SSW,209,15.0,20.0,80,0.00,,,0.11,Wunderground v.1.15,2013-05-30 19:26:00,
2013-05-30 14:31:00,80.1,72.2,29.80,SSW,209,17.0,17.0,77,0.00,,,0.11,Wunderground v.1.15,2013-05-30 19:31:00,
2013-05-30 14:36:00,81.1,73.6,29.80,SSE,161,19.0,22.0,78,0.00,,,0.11,Wunderground v.1.15,2013-05-30 19:36:00,
2013-05-30 14:41:00,81.4,72.7,29.80,SSW,211,21.0,21.0,75,0.00,,,0.11,Wunderground v.1.15,2013-05-30 19:41:00,
2013-05-30 14:46:00,81.7,72.6,29.80,SSW,199,20.0,25.0,74,0.00,,,0.11,Wunderground v.1.15,2013-05-30 19:46:00,
2013-05-30 14:51:00,81.5,72.4,29.79,South,171,19.0,23.0,74,0.00,,,0.11,Wunderground v.1.15,2013-05-30 19:51:00,
2013-05-30 14:56:00,80.3,71.3,29.80,South,172,21.0,29.0,74,0.00,,,0.11,Wunderground v.1.15,2013-05-30 19:56:00,
2013-05-30 15:02:00,80.2,72.7,29.79,SSW,201,17.0,19.0,78,0.00,,,0.11,Wunderground v.1.15,2013-05-30 20:02:00,
2013-05-30 15:07:00,81.7,72.6,29.78,SSW,212,16.0,32.0,74,0.00,,,0.11,Wunderground v.1.15,2013-05-30 20:07:00,
2013-05-30 15:13:00,82.8,72.8,29.78,SSE,151,20.0,25.0,72,0.00,,,0.11,Wunderground v.1.15,2013-05-30 20:13:00,
2013-05-30 15:18:00,82.5,73.4,29.78,South,175,19.0,25.0,74,0.00,,,0.11,Wunderground v.1.15,2013-05-30 20:18:00,
2013-05-30 15:23:00,82.3,72.8,29.78,SSW,201,18.0,19.0,73,0.00,,,0.11,Wunderground v.1.15,2013-05-30 20:23:00,
2013-05-30 15:28:00,81.5,72.0,29.78,South,175,19.0,20.0,73,0.00,,,0.11,Wunderground v.1.15,2013-05-30 20:28:00,
2013-05-30 15:33:00,80.3,72.0,29.77,SSW,195,17.0,18.0,76,0.18,,,0.14,Wunderground v.1.15,2013-05-30 20:33:00,
2013-05-30 15:38:00,80.1,71.5,29.78,SW,216,17.0,30.0,75,0.07,,,0.14,Wunderground v.1.15,2013-05-30 20:38:00,
2013-05-30 15:43:00,80.2,72.3,29.78,SW,216,21.0,23.0,77,0.04,,,0.14,Wunderground v.1.15,2013-05-30 20:43:00,
2013-05-30 15:48:00,81.2,72.5,29.78,SW,215,21.0,23.0,75,0.00,,,0.14,Wunderground v.1.15,2013-05-30 20:48:00,
2013-05-30 15:53:00,81.7,72.6,29.79,SSW,213,19.0,20.0,74,0.00,,,0.14,Wunderground v.1.15,2013-05-30 20:53:00,
2013-05-30 15:58:00,81.8,71.5,29.79,SSW,199,19.0,21.0,71,0.00,,,0.14,Wunderground v.1.15,2013-05-30 20:58:00,
2013-05-30 16:04:00,81.7,71.4,29.78,SSE,167,20.0,20.0,71,0.00,,,0.14,Wunderground v.1.15,2013-05-30 21:04:00,
2013-05-30 16:09:00,81.4,71.9,29.77,South,181,19.0,24.0,73,0.00,,,0.14,Wunderground v.1.15,2013-05-30 21:09:00,
2013-05-30 16:14:00,81.1,70.4,29.77,South,184,18.0,20.0,70,0.00,,,0.14,Wunderground v.1.15,2013-05-30 21:14:00,
2013-05-30 16:19:00,80.7,70.8,29.77,SSE,156,17.0,20.0,72,0.00,,,0.14,Wunderground v.1.15,2013-05-30 21:19:00,
2013-05-30 16:25:00,80.5,70.2,29.76,SSW,205,18.0,20.0,71,0.00,,,0.14,Wunderground v.1.15,2013-05-30 21:25:00,
2013-05-30 16:30:00,80.3,70.9,29.76,SSW,205,18.0,18.0,73,0.00,,,0.14,Wunderground v.1.15,2013-05-30 21:30:00,
2013-05-30 16:35:00,80.1,70.7,29.75,SSW,213,15.0,18.0,73,0.00,,,0.14,Wunderground v.1.15,2013-05-30 21:35:00,
2013-05-30 16:40:00,80.0,71.0,29.75,South,177,14.0,17.0,74,0.00,,,0.14,Wunderground v.1.15,2013-05-30 21:40:00,
2013-05-30 16:46:00,79.8,70.8,29.74,South,190,15.0,23.0,74,0.00,,,0.14,Wunderground v.1.15,2013-05-30 21:46:00,
2013-05-30 16:52:00,79.5,70.1,29.76,SE,145,19.0,19.0,73,0.00,,,0.15,Wunderground v.1.15,2013-05-30 21:52:00,
2013-05-30 16:57:00,72.7,63.5,29.77,SW,219,24.0,61.0,73,2.84,,,0.34,Wunderground v.1.15,2013-05-30 21:57:00,
2013-05-30 17:02:00,70.8,67.7,29.76,South,190,21.0,22.0,90,0.20,,,0.36,Wunderground v.1.15,2013-05-30 22:02:00,
2013-05-30 17:07:00,71.2,68.4,29.74,South,191,15.0,22.0,91,0.14,,,0.38,Wunderground v.1.15,2013-05-30 22:07:00,
2013-05-30 17:12:00,71.9,69.1,29.74,SSW,192,14.0,18.0,91,0.07,,,0.38,Wunderground v.1.15,2013-05-30 22:12:00,
2013-05-30 17:17:00,72.4,69.3,29.74,SSW,199,14.0,18.0,90,0.04,,,0.38,Wunderground v.1.15,2013-05-30 22:17:00,
2013-05-30 17:22:00,73.2,70.1,29.73,SSW,202,16.0,19.0,90,0.00,,,0.38,Wunderground v.1.15,2013-05-30 22:22:00,
2013-05-30 17:27:00,74.1,71.0,29.74,SSE,164,17.0,22.0,90,0.00,,,0.38,Wunderground v.1.15,2013-05-30 22:27:00,
2013-05-30 17:32:00,74.8,71.7,29.74,South,183,19.0,20.0,90,0.00,,,0.38,Wunderground v.1.15,2013-05-30 22:32:00,
2013-05-30 17:37:00,77.6,71.7,29.74,South,182,20.0,28.0,82,0.00,,,0.38,Wunderground v.1.15,2013-05-30 22:37:00,
2013-05-30 17:42:00,79.4,70.8,29.74,South,181,21.0,23.0,75,0.00,,,0.38,Wunderground v.1.15,2013-05-30 22:42:00,
2013-05-30 17:47:00,80.3,70.4,29.74,South,173,22.0,26.0,72,0.00,,,0.38,Wunderground v.1.15,2013-05-30 22:47:00,
2013-05-30 17:53:00,80.5,70.2,29.74,SE,138,22.0,24.0,71,0.00,,,0.38,Wunderground v.1.15,2013-05-30 22:53:00,
2013-05-30 17:58:00,80.4,70.1,29.74,SSW,211,21.0,25.0,71,0.00,,,0.38,Wunderground v.1.15,2013-05-30 22:58:00,
2013-05-30 18:04:00,80.4,70.5,29.74,SSW,205,20.0,21.0,72,0.00,,,0.38,Wunderground v.1.15,2013-05-30 23:04:00,
2013-05-30 18:09:00,80.3,70.9,29.74,South,184,19.0,28.0,73,0.00,,,0.38,Wunderground v.1.15,2013-05-30 23:09:00,
2013-05-30 18:14:00,80.3,69.6,29.75,SW,227,21.0,27.0,70,0.00,,,0.38,Wunderground v.1.15,2013-05-30 23:14:00,
2013-05-30 18:19:00,80.4,69.7,29.75,South,180,21.0,27.0,70,0.00,,,0.38,Wunderground v.1.15,2013-05-30 23:19:00,
2013-05-30 18:24:00,80.4,68.9,29.75,SSW,211,20.0,27.0,68,0.00,,,0.38,Wunderground v.1.15,2013-05-30 23:24:00,
2013-05-30 18:29:00,80.4,68.4,29.75,South,169,21.0,27.0,67,0.00,,,0.38,Wunderground v.1.15,2013-05-30 23:29:00,
2013-05-30 18:34:00,79.9,68.0,29.75,SSW,204,21.0,27.0,67,0.00,,,0.38,Wunderground v.1.15,2013-05-30 23:34:00,
2013-05-30 18:39:00,79.5,68.0,29.76,SSW,202,22.0,27.0,68,0.00,,,0.38,Wunderground v.1.15,2013-05-30 23:39:00,
2013-05-30 18:44:00,79.1,68.1,29.76,South,175,21.0,23.0,69,0.00,,,0.38,Wunderground v.1.15,2013-05-30 23:44:00,
2013-05-30 18:49:00,78.9,68.3,29.76,SSW,195,18.0,23.0,70,0.00,,,0.38,Wunderground v.1.15,2013-05-30 23:49:00,
2013-05-30 18:54:00,78.7,68.5,29.76,South,184,17.0,23.0,71,0.00,,,0.38,Wunderground v.1.15,2013-05-30 23:54:00,
2013-05-30 18:59:00,78.4,68.2,29.76,South,171,16.0,23.0,71,0.00,,,0.38,Wunderground v.1.15,2013-05-30 23:59:00,
2013-05-30 19:05:00,78.3,68.5,29.76,SSW,195,14.0,20.0,72,0.00,,,0.38,Wunderground v.1.15,2013-05-31 00:05:00,
2013-05-30 19:10:00,78.3,68.5,29.76,SSW,199,15.0,17.0,72,0.00,,,0.38,Wunderground v.1.15,2013-05-31 00:10:00,
2013-05-30 19:15:00,77.9,68.5,29.76,SSW,195,15.0,19.0,73,0.00,,,0.38,Wunderground v.1.15,2013-05-31 00:15:00,
2013-05-30 19:21:00,77.8,68.4,29.76,SSW,204,15.0,18.0,73,0.00,,,0.38,Wunderground v.1.15,2013-05-31 00:21:00,
2013-05-30 19:26:00,77.7,68.0,29.76,South,183,17.0,18.0,72,0.00,,,0.38,Wunderground v.1.15,2013-05-31 00:26:00,
2013-05-30 19:31:00,77.5,68.2,29.77,SW,216,17.0,19.0,73,0.00,,,0.38,Wunderground v.1.15,2013-05-31 00:31:00,
2013-05-30 19:36:00,77.4,68.1,29.77,SSW,204,17.0,23.0,73,0.00,,,0.38,Wunderground v.1.15,2013-05-31 00:36:00,
2013-05-30 19:41:00,77.2,68.3,29.76,SSW,205,17.0,17.0,74,0.00,,,0.38,Wunderground v.1.15,2013-05-31 00:41:00,
2013-05-30 19:46:00,77.1,68.2,29.77,SSW,192,16.0,18.0,74,0.00,,,0.38,Wunderground v.1.15,2013-05-31 00:46:00,
2013-05-30 19:51:00,77.0,68.5,29.77,SSE,161,16.0,17.0,75,0.00,,,0.38,Wunderground v.1.15,2013-05-31 00:51:00,
2013-05-30 19:56:00,76.9,68.0,29.77,SSW,211,16.0,19.0,74,0.00,,,0.38,Wunderground v.1.15,2013-05-31 00:56:00,
2013-05-30 20:02:00,75.6,67.5,29.80,West,276,17.0,27.0,76,0.00,,,0.38,Wunderground v.1.15,2013-05-31 01:02:00,
2013-05-30 20:07:00,70.1,62.2,29.80,West,272,19.0,27.0,76,0.00,,,0.38,Wunderground v.1.15,2013-05-31 01:07:00,
2013-05-30 20:12:00,68.3,61.9,29.79,WNW,303,19.0,20.0,80,0.00,,,0.38,Wunderground v.1.15,2013-05-31 01:12:00,
2013-05-30 20:17:00,67.1,61.8,29.80,WNW,284,21.0,27.0,83,0.00,,,0.38,Wunderground v.1.15,2013-05-31 01:17:00,
2013-05-30 20:22:00,66.3,61.3,29.79,West,280,21.0,21.0,84,0.00,,,0.39,Wunderground v.1.15,2013-05-31 01:22:00,
2013-05-30 20:27:00,65.9,61.6,29.80,West,277,17.0,21.0,86,0.00,,,0.39,Wunderground v.1.15,2013-05-31 01:27:00,
2013-05-30 20:32:00,65.4,61.4,29.81,WNW,294,13.0,15.0,87,0.00,,,0.39,Wunderground v.1.15,2013-05-31 01:32:00,
2013-05-30 20:37:00,64.7,61.4,29.80,WSW,248,11.0,15.0,89,0.00,,,0.39,Wunderground v.1.15,2013-05-31 01:37:00,
2013-05-30 20:42:00,64.4,61.4,29.80,West,278,10.0,10.0,90,0.00,,,0.39,Wunderground v.1.15,2013-05-31 01:42:00,
2013-05-30 20:47:00,64.0,61.0,29.81,West,272,10.0,17.0,90,0.00,,,0.40,Wunderground v.1.15,2013-05-31 01:47:00,
2013-05-30 20:52:00,63.6,60.6,29.80,WNW,284,11.0,14.0,90,1.02,,,0.47,Wunderground v.1.15,2013-05-31 01:52:00,
2013-05-30 20:57:00,63.5,60.5,29.79,WNW,300,12.0,14.0,90,0.11,,,0.47,Wunderground v.1.15,2013-05-31 01:57:00,
2013-05-30 21:03:00,63.6,60.6,29.79,NW,306,12.0,13.0,90,0.05,,,0.47,Wunderground v.1.15,2013-05-31 02:03:00,
2013-05-30 21:08:00,63.8,60.8,29.80,WNW,293,11.0,13.0,90,0.04,,,0.47,Wunderground v.1.15,2013-05-31 02:08:00,
2013-05-30 21:13:00,63.9,60.9,29.80,WSW,251,10.0,11.0,90,0.00,,,0.47,Wunderground v.1.15,2013-05-31 02:13:00,
2013-05-30 21:18:00,63.9,60.9,29.81,West,272,7.0,11.0,90,0.00,,,0.47,Wunderground v.1.15,2013-05-31 02:18:00,
2013-05-30 21:23:00,63.9,61.2,29.84,WSW,243,6.0,12.0,91,0.00,,,0.47,Wunderground v.1.15,2013-05-31 02:23:00,
2013-05-30 21:28:00,64.0,61.3,29.88,WSW,243,12.0,20.0,91,0.00,,,0.49,Wunderground v.1.15,2013-05-31 02:28:00,
2013-05-30 21:33:00,63.8,61.1,29.87,WSW,243,14.0,15.0,91,0.49,,,0.61,Wunderground v.1.15,2013-05-31 02:33:00,
2013-05-30 21:39:00,63.6,60.9,29.85,SW,227,12.0,15.0,91,0.14,,,0.62,Wunderground v.1.15,2013-05-31 02:39:00,
2013-05-30 21:44:00,63.5,60.8,29.85,SW,226,9.0,11.0,91,0.09,,,0.63,Wunderground v.1.15,2013-05-31 02:44:00,
2013-05-30 21:49:00,63.8,61.1,29.85,SW,235,9.0,11.0,91,0.09,,,0.63,Wunderground v.1.15,2013-05-31 02:49:00,
2013-05-30 21:54:00,63.9,61.2,29.84,WSW,240,10.0,10.0,91,0.06,,,0.64,Wunderground v.1.15,2013-05-31 02:54:00,
2013-05-30 21:59:00,64.2,61.5,29.84,SW,232,10.0,11.0,91,0.06,,,0.64,Wunderground v.1.15,2013-05-31 02:59:00,
2013-05-30 22:05:00,64.5,61.8,29.85,SW,233,10.0,11.0,91,0.05,,,0.64,Wunderground v.1.15,2013-05-31 03:05:00,
2013-05-30 22:10:00,64.7,62.0,29.84,SW,232,10.0,10.0,91,0.00,,,0.64,Wunderground v.1.15,2013-05-31 03:10:00,
2013-05-30 22:15:00,64.7,62.0,29.84,SW,220,9.0,12.0,91,0.00,,,0.64,Wunderground v.1.15,2013-05-31 03:15:00,
2013-05-30 22:21:00,64.6,61.9,29.84,SW,227,8.0,8.0,91,0.00,,,0.64,Wunderground v.1.15,2013-05-31 03:21:00,
2013-05-30 22:26:00,64.6,61.9,29.84,SW,216,7.0,8.0,91,0.00,,,0.64,Wunderground v.1.15,2013-05-31 03:26:00,
2013-05-30 22:31:00,64.5,61.8,29.83,SSW,206,6.0,8.0,91,0.00,,,0.64,Wunderground v.1.15,2013-05-31 03:31:00,
2013-05-30 22:36:00,64.4,61.7,29.84,South,175,6.0,8.0,91,0.00,,,0.64,Wunderground v.1.15,2013-05-31 03:36:00,
2013-05-30 22:41:00,64.5,61.8,29.83,South,179,6.0,7.0,91,0.00,,,0.64,Wunderground v.1.15,2013-05-31 03:41:00,
2013-05-30 22:47:00,64.5,61.8,29.83,SSE,147,5.0,7.0,91,0.00,,,0.64,Wunderground v.1.15,2013-05-31 03:47:00,
2013-05-30 22:52:00,64.5,61.8,29.83,SE,141,6.0,7.0,91,0.00,,,0.64,Wunderground v.1.15,2013-05-31 03:52:00,
2013-05-30 22:57:00,64.5,61.8,29.82,ESE,104,6.0,7.0,91,0.00,,,0.64,Wunderground v.1.15,2013-05-31 03:57:00,
2013-05-30 23:01:00,64.6,61.9,29.83,SE,137,6.0,6.0,91,0.00,,,0.64,Wunderground v.1.15,2013-05-31 04:01:00,
2013-05-30 23:02:00,64.5,61.8,29.83,SE,133,6.0,8.0,91,0.00,,,0.64,Wunderground v.1.15,2013-05-31 04:02:00,
2013-05-30 23:03:00,64.6,61.9,29.83,ESE,119,6.0,8.0,91,0.00,,,0.64,Wunderground v.1.15,2013-05-31 04:03:00,
2013-05-30 23:07:00,64.5,61.8,29.83,SE,130,6.0,8.0,91,0.00,,,0.64,Wunderground v.1.15,2013-05-31 04:07:00,
2013-05-30 23:12:00,64.4,61.7,29.82,ESE,121,6.0,8.0,91,0.00,,,0.64,Wunderground v.1.15,2013-05-31 04:12:00,
2013-05-30 23:13:00,64.4,61.7,29.82,SE,128,6.0,8.0,91,0.00,,,0.64,Wunderground v.1.15,2013-05-31 04:13:00,
2013-05-30 23:19:00,64.3,61.6,29.82,East,98,7.0,8.0,91,0.00,,,0.64,Wunderground v.1.15,2013-05-31 04:19:00,
2013-05-30 23:24:00,64.1,61.4,29.82,ESE,121,8.0,9.0,91,0.00,,,0.64,Wunderground v.1.15,2013-05-31 04:24:00,
2013-05-30 23:29:00,64.1,61.4,29.82,ESE,104,8.0,9.0,91,0.00,,,0.64,Wunderground v.1.15,2013-05-31 04:29:00,
2013-05-30 23:34:00,64.1,61.4,29.81,ESE,106,8.0,11.0,91,0.00,,,0.64,Wunderground v.1.15,2013-05-31 04:34:00,
2013-05-30 23:39:00,64.3,61.6,29.81,ESE,111,8.0,11.0,91,0.00,,,0.64,Wunderground v.1.15,2013-05-31 04:39:00,
2013-05-30 23:44:00,64.4,61.7,29.81,SE,140,8.0,10.0,91,0.00,,,0.64,Wunderground v.1.15,2013-05-31 04:44:00,
2013-05-30 23:49:00,64.5,61.8,29.82,SE,138,8.0,10.0,91,0.00,,,0.64,Wunderground v.1.15,2013-05-31 04:49:00,
2013-05-30 23:54:00,64.6,61.9,29.81,ESE,102,9.0,13.0,91,0.00,,,0.65,Wunderground v.1.15,2013-05-31 04:54:00,
2013-05-30 23:59:00,64.7,62.0,29.81,SE,126,9.0,13.0,91,0.00,,,0.65,Wunderground v.1.15,2013-05-31 04:59:00,